Location: *
(57.8420°S, 159.8600°W)
Time: 13:05:29
(UTC+00:00)

Cosmos 2360 Rocket - Pass Details

Date: 18 May 2021
Orbit: 835 x 844 km, 71.0° (Epoch: 22 June)

Event Time Altitude Azimuth Distance (km) Brightness Sun altitude
Rises 04:47:08 0° 290° (WNW) 3,405 6.9 -18.0°
Reaches altitude 10° 04:49:46 10° 281° (W) 2,476 5.9 -18.3°
Maximum altitude 04:55:02 37° 213° (SSW) 1,302 3.4 -19.0°
Enters shadow 04:59:11 16° 152° (SSE) 2,118 4.0 -19.6°
